CW1390 East Haven CT US current weather conditions

sailwx.info

Wind from 157

Air temperature -2.2° C
Dewpoint -9.6° C

Last reported at 2019-Dec-12 23:07 UTC.
Time now 2019-Dec-12 23:34 UTC

Location: N 41°18' W 072°52'.
View on Google Maps.

See reports from other nearby stations

  
Tides and Currents Weather Stations Pressure Air Temp Water Temp Dewpoint Dewpoint Depression Visibility Wind Speed Wind Dir Waves Ship Positions
date/time (UTC)wind fromknots sea level pressurealtimeterstation pressurevisibilityair tempwater tempwave heightnotes
2019-Dec-12 23:07 157 -2.2
2019-Dec-12 23:02 157 -2.2
2019-Dec-12 22:52 157 -2.2
2019-Dec-12 22:47 157 -2.2
2019-Dec-12 22:42 157 -2.2
2019-Dec-12 22:37 157 -1.7
2019-Dec-12 22:32 157 -1.7
2019-Dec-12 22:27 157 -1.7
2019-Dec-12 22:22 157 0 gusting 0 -1.7
2019-Dec-12 22:17 158 -1.7
2019-Dec-12 22:12 158 -1.7
2019-Dec-12 22:07 156 -1.7
2019-Dec-12 22:02 156 0 gusting 2 -1.7
2019-Dec-12 21:57 156 -1.1
2019-Dec-12 21:52 156 -1.1
2019-Dec-12 21:47 156 0 gusting 2 -1.1
2019-Dec-12 21:42 157 1 gusting 4 -1.1
2019-Dec-12 21:37 133 0 gusting 4 -1.1
2019-Dec-12 21:32 130 1 gusting 3 -0.6
2019-Dec-12 21:27 155 2 gusting 4 -0.6
2019-Dec-12 21:22 127 2 gusting 5 -0.6
2019-Dec-12 21:17 156 2 gusting 5 -0.0
2019-Dec-12 21:12 168 0 gusting 4 -0.0
2019-Dec-12 21:07 135 2 gusting 4 -0.0
2019-Dec-12 21:02 180 1 gusting 4 -0.0
2019-Dec-12 20:57 162 1 gusting 3 -0.0
2019-Dec-12 20:52 146 3 gusting 3 -0.0
2019-Dec-12 20:47 131 0 gusting 2 -0.0
2019-Dec-12 20:42 134 0 gusting 1 -0.0
2019-Dec-12 20:37 143 1 gusting 2 -0.0
2019-Dec-12 20:32 143 0.6
2019-Dec-12 20:27 140 0 gusting 3 0.6
2019-Dec-12 20:22 096 1 gusting 1 -0.0
2019-Dec-12 20:17 355 -0.0
2019-Dec-12 20:12 355 -0.0
2019-Dec-12 20:07 355 -0.0
2019-Dec-12 20:02 355 -0.6
2019-Dec-12 19:57 333 0 gusting 3 -0.0
2019-Dec-12 19:52 331 -0.0
2019-Dec-12 19:47 331 1 gusting 3 -0.6
2019-Dec-12 19:42 041 1 gusting 4 -0.6
2019-Dec-12 19:37 360 1 gusting 4 -0.6
2019-Dec-12 19:32 308 3 gusting 5 -0.6
2019-Dec-12 19:27 320 3 gusting 5 -0.0
2019-Dec-12 19:22 023 0 gusting 3 -0.0
2019-Dec-12 19:17 085 0 gusting 6 -0.0
2019-Dec-12 19:12 059 1 gusting 6 -0.0
2019-Dec-12 19:07 101 1 gusting 4 -0.0
2019-Dec-12 19:02 296 0 gusting 6 -0.6
2019-Dec-12 18:57 056 3 gusting 7 -0.6
2019-Dec-12 18:52 355 3 gusting 7 -0.6
2019-Dec-12 18:47 321 2 gusting 8 -0.6
2019-Dec-12 18:42 314 5 gusting 12 -0.6
2019-Dec-12 18:37 276 5 gusting 12 -1.1
2019-Dec-12 18:32 333 0 gusting 7 -0.6
2019-Dec-12 18:27 355 5 gusting 9 -1.1
2019-Dec-12 18:22 349 4 gusting 9 -0.6
2019-Dec-12 18:17 011 2 gusting 11 -1.1
2019-Dec-12 18:12 350 8 gusting 11 -1.1
2019-Dec-12 18:07 355 1 gusting 9 -1.1
2019-Dec-12 18:02 321 5 gusting 9 -1.1
2019-Dec-12 17:57 355 6 gusting 9 -1.1
2019-Dec-12 17:52 052 4 gusting 8 -1.1
2019-Dec-12 17:47 360 3 gusting 8 -1.1
2019-Dec-12 17:42 355 3 gusting 8 -1.1
2019-Dec-12 17:37 325 5 gusting 10 -1.1
2019-Dec-12 17:32 355 4 gusting 12 -1.1
2019-Dec-12 17:27 336 6 gusting 12 -1.7
2019-Dec-12 17:22 330 4 gusting 11 -1.1
2019-Dec-12 17:17 350 2 gusting 9 -1.1
2019-Dec-12 17:12 047 4 gusting 12 -1.7
2019-Dec-12 17:07 316 2 gusting 12 -1.7
2019-Dec-12 17:02 005 5 gusting 11 -1.7
2019-Dec-12 16:57 005 8 gusting 11 -1.7
2019-Dec-12 16:52 005 4 gusting 11 -1.7
2019-Dec-12 16:47 309 3 gusting 10 -1.7
2019-Dec-12 16:42 345 8 gusting 10 -1.7
2019-Dec-12 16:37 053 5 gusting 9 -1.7
2019-Dec-12 16:32 340 1 gusting 8 -1.7
2019-Dec-12 16:27 360 2 gusting 7 -1.7
2019-Dec-12 16:22 305 2 gusting 7 -1.7
2019-Dec-12 16:17 064 4 gusting 8 -1.7
2019-Dec-12 16:12 058 7 gusting 8 -1.7
2019-Dec-12 16:07 340 2 gusting 8 -2.2
2019-Dec-12 16:02 005 5 gusting 8 -2.2
2019-Dec-12 15:57 329 3 gusting 6 -2.2
2019-Dec-12 15:52 338 4 gusting 9 -2.2
2019-Dec-12 15:47 306 4 gusting 9 -2.2
2019-Dec-12 15:42 294 4 gusting 11 -2.2
2019-Dec-12 15:37 360 1 gusting 11 -2.8
2019-Dec-12 15:32 347 9 gusting 9 -2.2
2019-Dec-12 15:27 360 1 gusting 9 -2.8
2019-Dec-12 15:22 323 7 gusting 7 -2.8
2019-Dec-12 15:17 312 1 gusting 7 -2.8
2019-Dec-12 15:12 021 3 gusting 8 -2.8
2019-Dec-12 15:07 281 2 gusting 8 -2.8
2019-Dec-12 15:02 321 5 gusting 6 -2.8
2019-Dec-12 14:57 302 0 gusting 4 -2.8
2019-Dec-12 14:52 341 1 gusting 5 -3.3
2019-Dec-12 14:47 302 1 gusting 7 -3.3
2019-Dec-12 14:42 310 4 gusting 8 -3.3
2019-Dec-12 14:37 321 4 gusting 8 -3.3
2019-Dec-12 14:32 286 5 gusting 8 -3.9
2019-Dec-12 14:27 284 3 gusting 8 -3.9
2019-Dec-12 14:22 309 4 gusting 8 -3.9
2019-Dec-12 14:17 292 3 gusting 6 -3.9
2019-Dec-12 14:12 311 1 gusting 6 -3.9
2019-Dec-12 14:07 328 5 gusting 6 -4.4
2019-Dec-12 14:02 317 2 gusting 6 -4.4
2019-Dec-12 13:57 292 0 gusting 6 -4.4
2019-Dec-12 13:52 306 2 gusting 6 -4.4
2019-Dec-12 13:47 307 1 gusting 4 -4.4
2019-Dec-12 13:42 292 1 gusting 4 -4.4
2019-Dec-12 13:37 302 1 gusting 4 -4.4
2019-Dec-12 13:32 326 0 gusting 2 -5.0
2019-Dec-12 13:27 326 0 gusting 2 -5.0
2019-Dec-12 13:22 325 0 gusting 2 -5.0
2019-Dec-12 13:17 319 1 gusting 2 -5.0
2019-Dec-12 13:12 321 -5.6
2019-Dec-12 13:07 321 1 gusting 2 -5.6
2019-Dec-12 13:02 298 1 gusting 1 -5.6
2019-Dec-12 12:57 298 0 gusting 2 -6.1
2019-Dec-12 12:52 298 1 gusting 3 -6.1
2019-Dec-12 12:47 300 0 gusting 5 -6.1
2019-Dec-12 12:42 315 1 gusting 5 -6.1
2019-Dec-12 12:37 311 -6.1
2019-Dec-12 12:32 312 -6.1
2019-Dec-12 12:27 311 0 gusting 2 -6.1
2019-Dec-12 12:22 311 0 gusting 3 -6.1
2019-Dec-12 12:17 302 2 gusting 3 -6.1
2019-Dec-12 12:12 301 2 gusting 3 -6.1
2019-Dec-12 12:07 301 0 gusting 2 -6.1
2019-Dec-12 12:02 301 1 gusting 2 -6.1
2019-Dec-12 11:57 317 0 gusting 6 -5.6
2019-Dec-12 11:52 304 2 gusting 6 -5.6
2019-Dec-12 11:47 328 4 gusting 6 -5.6
2019-Dec-12 11:42 297 2 gusting 5 -5.6
2019-Dec-12 11:37 327 3 gusting 4 -5.6
2019-Dec-12 11:32 333 1 gusting 5 -5.6
2019-Dec-12 11:27 321 2 gusting 6 -5.6
2019-Dec-12 11:22 312 2 gusting 6 -5.6
2019-Dec-12 11:17 317 2 gusting 3 -5.6
2019-Dec-12 11:12 315 1 gusting 3 -5.6
2019-Dec-12 11:07 311 1 gusting 3 -5.6
2019-Dec-12 11:02 302 1 gusting 3 -5.6
2019-Dec-12 10:57 302 1 gusting 3 -5.6
2019-Dec-12 10:52 302 1 gusting 3 -5.6
2019-Dec-12 10:47 296 1 gusting 3 -5.6
2019-Dec-12 10:42 300 1 gusting 4 -5.6
2019-Dec-12 10:37 308 1 gusting 4 -5.6
2019-Dec-12 10:32 311 0 gusting 3 -5.6
2019-Dec-12 10:27 311 2 gusting 3 -5.6
2019-Dec-12 10:22 302 2 gusting 2 -5.6
2019-Dec-12 10:17 302 2 gusting 2 -5.6
2019-Dec-12 10:12 302 1 gusting 2 -5.0
2019-Dec-12 10:07 302 1 gusting 4 -5.0
2019-Dec-12 10:02 317 1 gusting 4 -5.0
2019-Dec-12 09:57 324 0 gusting 4 -5.0
2019-Dec-12 09:52 324 1 gusting 6 -5.0
2019-Dec-12 09:47 325 3 gusting 6 -5.0
2019-Dec-12 09:42 338 2 gusting 4 -5.0
2019-Dec-12 09:37 313 2 gusting 4 -5.0
2019-Dec-12 09:32 304 2 gusting 3 -5.0
2019-Dec-12 09:27 302 1 gusting 2 -5.0
2019-Dec-12 09:22 302 0 gusting 2 -5.0
2019-Dec-12 09:17 301 0 gusting 2 -5.0
2019-Dec-12 09:12 302 0 gusting 3 -5.0
2019-Dec-12 09:07 322 1 gusting 4 -5.0
2019-Dec-12 09:02 327 1 gusting 4 -4.4
2019-Dec-12 08:57 331 2 gusting 4 -4.4
2019-Dec-12 08:52 302 2 gusting 3 -4.4
2019-Dec-12 08:47 330 1 gusting 3 -4.4
2019-Dec-12 08:42 315 1 gusting 3 -4.4
2019-Dec-12 08:37 317 1 gusting 4 -3.9
2019-Dec-12 08:32 294 2 gusting 5 -3.9
2019-Dec-12 08:27 331 2 gusting 5 -3.9
2019-Dec-12 08:22 343 2 gusting 4 -3.9
2019-Dec-12 08:17 322 2 gusting 4 -3.9
2019-Dec-12 08:12 311 1 gusting 5 -3.9
2019-Dec-12 08:07 317 3 gusting 6 -3.9
2019-Dec-12 07:57 292 2 gusting 8 -3.9
2019-Dec-12 07:52 309 1 gusting 4 -3.9
2019-Dec-12 07:47 309 2 gusting 4 -3.3
2019-Dec-12 07:42 312 2 gusting 6 -3.3
2019-Dec-12 07:37 296 2 gusting 7 -3.3
2019-Dec-12 07:32 305 2 gusting 7 -3.3
2019-Dec-12 07:27 321 2 gusting 6 -3.3
2019-Dec-12 07:22 313 2 gusting 8 -3.3
2019-Dec-12 07:07 300 3 gusting 11 -2.8
2019-Dec-12 07:02 337 5 gusting 10 -2.8
2019-Dec-12 06:57 318 4 gusting 9 -2.8
2019-Dec-12 06:52 315 5 gusting 9 -2.8
2019-Dec-12 06:47 321 5 gusting 9 -2.8
2019-Dec-12 06:42 314 7 gusting 9 -2.8
2019-Dec-12 06:37 323 5 gusting 9 -2.2
2019-Dec-12 06:32 321 5 gusting 11 -2.2
2019-Dec-12 06:27 319 5 gusting 11 -2.2
2019-Dec-12 06:22 319 6 gusting 11 -2.2
2019-Dec-12 06:17 313 7 gusting 15 -2.2
2019-Dec-12 06:12 337 7 gusting 16 -2.2
2019-Dec-12 06:07 321 7 gusting 18 -2.2
2019-Dec-12 06:02 317 8 gusting 18 -1.7
2019-Dec-12 05:57 316 8 gusting 16 -1.7
2019-Dec-12 05:52 282 8 gusting 13 -2.2
2019-Dec-12 05:47 309 10 gusting 18 -2.2
2019-Dec-12 05:42 316 10 gusting 18 -2.2
2019-Dec-12 05:37 201 2 gusting 10 -2.2
2019-Dec-12 05:32 311 2 gusting 10 -2.2
2019-Dec-12 05:27 304 2 gusting 9 -2.2
2019-Dec-12 05:22 317 1 gusting 8 -2.2
2019-Dec-12 05:17 289 6 gusting 7 -2.2
2019-Dec-12 05:12 306 1 gusting 3 -2.2
2019-Dec-12 05:07 315 3 gusting 8 -2.2
2019-Dec-12 05:02 298 2 gusting 9 -2.2
2019-Dec-12 04:57 323 4 gusting 9 -2.2
2019-Dec-12 04:52 296 4 gusting 8 -2.2
2019-Dec-12 04:47 307 4 gusting 7 -2.2
2019-Dec-12 04:42 304 3 gusting 6 -2.2
2019-Dec-12 04:37 305 6 gusting 6 -2.2
2019-Dec-12 04:32 295 2 gusting 10 -2.2
2019-Dec-12 04:27 296 2 gusting 10 -2.2
2019-Dec-12 04:22 301 1 gusting 6 -2.2
2019-Dec-12 04:17 303 2 gusting 7 -1.7
2019-Dec-12 04:12 311 1 gusting 7 -1.7
2019-Dec-12 04:07 303 1 gusting 6 -1.7
2019-Dec-12 04:02 296 1 gusting 6 -1.7
2019-Dec-12 03:57 298 4 gusting 7 -1.7
2019-Dec-12 03:52 305 2 gusting 12 -1.7
2019-Dec-12 03:47 264 6 gusting 12 -1.7
2019-Dec-12 03:42 269 6 gusting 11 -1.7
2019-Dec-12 03:37 290 7 gusting 11 -1.7
2019-Dec-12 03:32 299 6 gusting 8 -1.7
2019-Dec-12 03:27 304 6 gusting 9 -1.7
2019-Dec-12 03:22 292 3 gusting 9 -1.1
2019-Dec-12 03:17 292 1 gusting 8 -1.7
2019-Dec-12 03:12 313 1 gusting 8 -1.1
2019-Dec-12 03:07 269 6 gusting 10 -1.1
2019-Dec-12 03:02 311 2 gusting 12 -1.1
2019-Dec-12 02:57 350 5 gusting 12 -1.1
2019-Dec-12 02:52 317 4 gusting 8 -1.1
2019-Dec-12 02:47 308 3 gusting 8 -1.1
2019-Dec-12 02:42 329 4 gusting 7 -1.1
2019-Dec-12 02:37 305 3 gusting 8 -1.1
2019-Dec-12 02:32 306 1 gusting 8 -1.1
2019-Dec-12 02:27 302 3 gusting 9 -1.1
2019-Dec-12 02:22 297 4 gusting 9 -1.1
2019-Dec-12 02:17 306 6 gusting 7 -1.1
2019-Dec-12 02:12 286 6 gusting 6 -1.1
2019-Dec-12 02:07 302 2 gusting 6 -1.1
2019-Dec-12 02:02 304 1 gusting 6 -0.6
2019-Dec-12 01:57 283 2 gusting 7 -0.6
2019-Dec-12 01:52 290 1 gusting 7 -0.6
2019-Dec-12 01:47 295 1 gusting 6 -0.6
2019-Dec-12 01:42 259 3 gusting 7 -0.6
2019-Dec-12 01:37 303 0 gusting 7 -0.6
2019-Dec-12 01:32 277 1 gusting 7 -0.0
2019-Dec-12 01:27 258 1 gusting 9 -0.0
2019-Dec-12 01:22 232 1 gusting 9 -0.0
2019-Dec-12 01:17 298 2 gusting 9 -0.0
2019-Dec-12 01:12 267 3 gusting 9 -0.0
2019-Dec-12 01:07 293 6 gusting 10 -0.0
2019-Dec-12 01:02 254 4 gusting 10 -0.0
2019-Dec-12 00:57 267 3 gusting 8 -0.0
2019-Dec-12 00:52 241 1 gusting 11 -0.0
2019-Dec-12 00:47 227 4 gusting 11 -0.0
2019-Dec-12 00:42 264 5 gusting 10 -0.0
2019-Dec-12 00:37 231 3 gusting 10 -0.0
2019-Dec-12 00:32 228 5 gusting 7 -0.0
2019-Dec-12 00:27 245 1 gusting 7 -0.0
2019-Dec-12 00:22 265 3 gusting 9 -0.0
2019-Dec-12 00:17 273 3 gusting 9 -0.0
2019-Dec-12 00:12 243 6 gusting 7 -0.0
2019-Dec-12 00:07 250 4 gusting 10 -0.0
2019-Dec-12 00:02 269 5 gusting 10 -0.0
2019-Dec-11 23:57 237 5 gusting 12 -0.0
2019-Dec-11 23:52 220 3 gusting 12 -0.0
2019-Dec-11 23:47 255 4 gusting 6 -0.0
2019-Dec-11 23:42 273 2 gusting 6 -0.0
2019-Dec-11 23:37 235 4 gusting 6 -0.0
2019-Dec-11 23:32 275 2 gusting 4 -0.0
2019-Dec-11 23:27 259 1 gusting 6 -0.0
2019-Dec-11 23:22 261 0 gusting 6 -0.0
2019-Dec-11 23:17 246 2 gusting 5 -0.0
2019-Dec-11 23:12 229 2 gusting 5 -0.0
2019-Dec-11 23:07 226 2 gusting 5 -0.0
2019-Dec-11 23:02 244 2 gusting 5 -0.0
2019-Dec-11 22:57 240 1 gusting 6 -0.0
2019-Dec-11 22:52 227 0 gusting 6 -0.0
2019-Dec-11 22:47 248 1 gusting 6 -0.0
2019-Dec-11 22:42 258 0 gusting 6 -0.0
2019-Dec-11 22:37 259 1 gusting 8 -0.0
2019-Dec-11 22:32 219 2 gusting 8 -0.0
2019-Dec-11 22:27 286 3 gusting 6 -0.0
2019-Dec-11 22:22 261 3 gusting 6 -0.0
2019-Dec-11 22:17 270 1 gusting 5 -0.0
2019-Dec-11 22:12 249 0 gusting 3 -0.0
2019-Dec-11 22:07 289 1 gusting 6 -0.0
2019-Dec-11 22:02 238 2 gusting 6 -0.0
2019-Dec-11 21:57 255 2 gusting 3 -0.0
2019-Dec-11 21:52 261 1 gusting 3 -0.0
2019-Dec-11 21:47 258 0 gusting 4 -0.0
2019-Dec-11 21:42 240 1 gusting 4 -0.0
2019-Dec-11 21:37 265 1 gusting 4 -0.0
2019-Dec-11 21:32 290 1 gusting 4 -0.0
2019-Dec-11 21:27 240 1 gusting 3 -0.0
2019-Dec-11 21:22 261 0 gusting 4 -0.0
2019-Dec-11 21:17 239 1 gusting 4 -0.0
2019-Dec-11 21:12 226 2 gusting 4 0.6
2019-Dec-11 21:07 220 1 gusting 6 0.6
2019-Dec-11 21:02 254 1 gusting 6 0.6
2019-Dec-11 20:57 266 2 gusting 5 0.6
2019-Dec-11 20:52 232 1 gusting 5 0.6
2019-Dec-11 20:47 242 1 gusting 5 0.6
2019-Dec-11 20:42 223 2 gusting 4 0.6
2019-Dec-11 20:37 274 0 gusting 4 0.6
2019-Dec-11 20:32 213 0 gusting 3 1.1
2019-Dec-11 20:27 219 0 gusting 4 0.6
2019-Dec-11 20:22 287 0.6
2019-Dec-11 20:17 244 2 gusting 3 0.6
2019-Dec-11 20:12 267 1 gusting 5 0.6
2019-Dec-11 20:07 289 1 gusting 7 0.6
2019-Dec-11 20:02 283 1 gusting 7 0.6
2019-Dec-11 19:57 219 2 gusting 5 0.6
2019-Dec-11 19:52 234 1 gusting 6 0.6
2019-Dec-11 19:47 233 0 gusting 6 0.6
2019-Dec-11 19:42 260 2 gusting 4 0.6
2019-Dec-11 19:37 260 0.6
2019-Dec-11 19:32 213 1 gusting 5 0.6
2019-Dec-11 19:27 268 3 gusting 6 0.6
2019-Dec-11 19:22 228 0 gusting 6 0.6
2019-Dec-11 19:17 215 5 gusting 7 0.6
2019-Dec-11 19:12 225 2 gusting 8 0.6
2019-Dec-11 19:07 240 0 gusting 8 0.6
2019-Dec-11 19:02 293 2 gusting 6 0.6
2019-Dec-11 18:57 305 3 gusting 8 -0.0
2019-Dec-11 18:52 322 3 gusting 8 0.6
2019-Dec-11 18:47 311 2 gusting 6 -0.0
2019-Dec-11 18:42 236 1 gusting 6 -0.0
2019-Dec-11 18:37 244 1 gusting 6 -0.0
2019-Dec-11 18:32 285 6 gusting 6 -0.0
2019-Dec-11 18:27 244 1 gusting 4 -0.0
2019-Dec-11 18:22 252 2 gusting 6 -0.0
2019-Dec-11 18:17 254 1 gusting 6 -0.0
2019-Dec-11 18:12 231 2 gusting 6 -0.0
2019-Dec-11 18:07 218 2 gusting 2 -0.0
2019-Dec-11 18:02 265 0 gusting 4 -0.0
2019-Dec-11 17:57 240 2 gusting 4 -0.0
2019-Dec-11 17:52 229 2 gusting 3 -0.0
2019-Dec-11 17:47 310 0 gusting 3 -0.0
2019-Dec-11 17:42 288 0 gusting 3 -0.6
2019-Dec-11 17:37 327 2 gusting 3 -0.6
2019-Dec-11 17:32 321 0 gusting 5 -0.6
2019-Dec-11 17:27 345 1 gusting 5 -0.6
2019-Dec-11 17:22 336 3 gusting 4 -0.6
2019-Dec-11 17:17 303 1 gusting 4 -0.6
2019-Dec-11 17:12 311 2 gusting 2 -0.6
2019-Dec-11 17:07 283 1 gusting 2 -0.6
2019-Dec-11 17:02 261 0 gusting 2 -0.6
2019-Dec-11 16:57 244 0 gusting 3 -1.1
2019-Dec-11 16:52 323 1 gusting 3 -1.1
2019-Dec-11 16:47 238 2 gusting 3 -1.1
2019-Dec-11 16:42 285 0 gusting 2 -1.1
2019-Dec-11 16:37 229 1 gusting 2 -1.1
2019-Dec-11 16:32 206 1 gusting 3 -1.1
2019-Dec-11 16:27 276 0 gusting 3 -1.1
2019-Dec-11 16:22 313 -1.7
2019-Dec-11 16:17 252 -1.7
2019-Dec-11 16:12 331 1 gusting 2 -1.7
2019-Dec-11 16:07 331 -2.2
2019-Dec-11 16:02 005 -2.2
2019-Dec-11 15:57 005 1 gusting 2 -2.2
2019-Dec-11 15:52 040 -2.2
2019-Dec-11 15:47 040 -2.2
2019-Dec-11 15:42 040 -2.2
2019-Dec-11 15:37 040 -2.2
2019-Dec-11 15:32 040 -2.8
2019-Dec-11 15:27 040 -2.8
2019-Dec-11 15:22 040 0 gusting 1 -2.8
2019-Dec-11 15:17 040 -2.8
2019-Dec-11 15:12 040 0 gusting 2 -2.8
2019-Dec-11 15:07 040 0 gusting 3 -2.8
2019-Dec-11 15:02 040 0 gusting 3 -3.3
2019-Dec-11 14:57 350 1 gusting 3 -3.3
2019-Dec-11 14:52 052 0 gusting 3 -3.3
2019-Dec-11 14:47 340 0 gusting 3 -3.3
2019-Dec-11 14:42 014 0 gusting 6 -3.3
2019-Dec-11 14:37 342 0 gusting 6 -2.8
2019-Dec-11 14:32 351 5 gusting 7 -2.8
2019-Dec-11 14:27 360 3 gusting 7 -2.8
2019-Dec-11 14:22 346 2 gusting 7 -2.8
2019-Dec-11 14:17 355 1 gusting 6 -2.8
2019-Dec-11 14:12 339 2 gusting 6 -2.8
2019-Dec-11 14:07 350 1 gusting 6 -2.2
2019-Dec-11 14:02 340 5 gusting 7 -2.2
2019-Dec-11 13:57 331 3 gusting 9 -2.2
2019-Dec-11 13:52 329 4 gusting 9 -2.2
2019-Dec-11 13:47 328 3 gusting 8 -2.2
2019-Dec-11 13:42 345 4 gusting 8 -2.2
2019-Dec-11 13:37 016 6 gusting 6 -2.2
2019-Dec-11 13:32 325 3 gusting 6 -2.2
2019-Dec-11 13:27 350 4 gusting 6 -2.2
2019-Dec-11 13:22 355 1 gusting 4 -2.2
2019-Dec-11 13:17 341 2 gusting 6 -2.2
2019-Dec-11 13:12 348 3 gusting 6 -2.2
2019-Dec-11 13:07 324 4 gusting 6 -2.2
2019-Dec-11 13:02 313 1 gusting 6 -2.2
2019-Dec-11 12:57 344 2 gusting 3 -2.2
2019-Dec-11 12:52 010 0 gusting 2 -2.2
2019-Dec-11 12:47 327 -2.2
2019-Dec-11 12:42 327 1 gusting 3 -2.2
2019-Dec-11 12:37 013 0 gusting 2 -2.2
2019-Dec-11 12:32 024 2 gusting 3 -2.2
2019-Dec-11 12:27 020 2 gusting 3 -2.2
2019-Dec-11 12:22 346 1 gusting 4 -2.2
2019-Dec-11 12:17 347 2 gusting 4 -2.2
2019-Dec-11 12:12 360 1 gusting 4 -2.2
2019-Dec-11 12:07 348 2 gusting 5 -2.2
2019-Dec-11 12:02 012 2 gusting 5 -2.2
2019-Dec-11 11:57 005 1 gusting 3 -2.2
2019-Dec-11 11:52 056 0 gusting 3 -2.2
2019-Dec-11 11:47 347 -2.2
2019-Dec-11 11:42 014 3 gusting 6 -2.2
2019-Dec-11 11:37 026 3 gusting 6 -2.2
2019-Dec-11 11:32 058 1 gusting 6 -2.2
2019-Dec-11 11:27 016 6 gusting 6 -2.2
2019-Dec-11 11:22 348 2 gusting 8 -2.2
2019-Dec-11 11:17 350 3 gusting 11 -2.2
2019-Dec-11 11:12 005 4 gusting 11 -2.2
2019-Dec-11 11:07 308 3 gusting 12 -2.2
2019-Dec-11 11:02 360 4 gusting 13 -2.2
2019-Dec-11 10:57 345 6 gusting 14 -2.2
2019-Dec-11 10:52 350 7 gusting 15 -2.2
2019-Dec-11 10:47 033 4 gusting 15 -2.2
2019-Dec-11 10:42 309 4 gusting 13 -1.7
2019-Dec-11 10:37 025 5 gusting 13 -1.7
2019-Dec-11 10:32 305 4 gusting 9 -1.7
2019-Dec-11 10:02 022 0 gusting 10 -1.1
2019-Dec-11 09:57 355 6 gusting 12 -1.1
2019-Dec-11 09:52 318 5 gusting 13 -1.1
2019-Dec-11 09:47 011 4 gusting 13 -1.1
2019-Dec-11 09:42 355 9 gusting 12 -1.1
2019-Dec-11 09:37 005 7 gusting 13 -0.6
2019-Dec-11 09:32 350 6 gusting 13 -0.6
2019-Dec-11 09:27 360 3 gusting 11 -0.6
2019-Dec-11 09:22 340 7 gusting 11 -0.6
2019-Dec-11 09:17 343 6 gusting 9 -0.6
2019-Dec-11 09:12 320 4 gusting 7 -0.6
2019-Dec-11 09:07 016 1 gusting 7 -0.0
2019-Dec-11 09:02 319 2 gusting 8 -0.0
2019-Dec-11 08:57 330 4 gusting 9 -0.0
2019-Dec-11 08:52 019 2 gusting 9 -0.0
2019-Dec-11 08:47 347 2 gusting 6 -0.0
2019-Dec-11 08:42 345 2 gusting 8 -0.0
2019-Dec-11 08:37 360 1 gusting 8 -0.0
2019-Dec-11 08:32 360 3 gusting 8 -0.0
2019-Dec-11 08:27 347 1 gusting 8 -0.0
2019-Dec-11 08:22 332 5 gusting 11 -0.0
2019-Dec-11 08:17 036 5 gusting 11 -0.0
2019-Dec-11 08:12 321 5 gusting 9 -0.0
2019-Dec-11 08:07 340 5 gusting 9 -0.0
2019-Dec-11 08:02 351 2 gusting 8 -0.0
2019-Dec-11 07:57 350 4 gusting 10 -0.0
2019-Dec-11 07:52 350 3 gusting 12 -0.0
2019-Dec-11 07:47 326 8 gusting 14 0.6
2019-Dec-11 07:42 319 3 gusting 14 0.6
2019-Dec-11 07:37 334 6 gusting 14 0.6
2019-Dec-11 07:32 350 5 gusting 13 0.6
2019-Dec-11 07:27 345 4 gusting 8 0.6
2019-Dec-11 07:22 261 6 gusting 7 0.6
2019-Dec-11 07:17 329 4 gusting 7 0.6
2019-Dec-11 07:12 327 3 gusting 9 0.6
2019-Dec-11 07:07 322 5 gusting 9 1.1
2019-Dec-11 07:02 297 2 gusting 7 1.1
2019-Dec-11 06:57 351 3 gusting 7 1.1
2019-Dec-11 06:52 340 2 gusting 8 1.1
2019-Dec-11 06:47 311 2 gusting 8 1.1
2019-Dec-11 06:42 022 3 gusting 7 1.1
2019-Dec-11 06:37 327 5 gusting 8 1.1
2019-Dec-11 06:32 342 4 gusting 8 1.1
2019-Dec-11 06:27 350 6 gusting 10 1.7
2019-Dec-11 06:22 348 5 gusting 10 1.7
2019-Dec-11 06:17 313 5 gusting 8 1.7
2019-Dec-11 06:12 309 4 gusting 9 1.7
2019-Dec-11 06:07 360 4 gusting 10 1.7
2019-Dec-11 06:02 328 2 gusting 13 2.2
2019-Dec-11 05:57 313 6 gusting 13 2.2
2019-Dec-11 05:52 308 3 gusting 13 2.2
2019-Dec-11 05:47 336 8 gusting 13 2.8
2019-Dec-11 05:42 005 3 gusting 11 2.8
2019-Dec-11 05:37 350 8 gusting 11 3.3
2019-Dec-11 05:32 346 1 gusting 9 3.3
2019-Dec-11 05:27 338 2 gusting 9 3.9
2019-Dec-11 05:22 355 5 gusting 9 3.9
2019-Dec-11 05:17 351 5 gusting 10 3.9
2019-Dec-11 05:12 327 5 gusting 10 4.4
2019-Dec-11 05:07 011 6 gusting 14 4.4
2019-Dec-11 05:02 339 3 gusting 14 4.4
2019-Dec-11 04:57 315 2 gusting 10 5.0
2019-Dec-11 04:52 298 2 gusting 11 5.0
2019-Dec-11 04:47 307 6 gusting 11 5.0
2019-Dec-11 04:42 313 2 gusting 6 5.6
2019-Dec-11 04:37 323 1 gusting 6 5.6
2019-Dec-11 04:32 326 1 gusting 4 5.6
2019-Dec-11 04:27 326 1 gusting 2 5.6
2019-Dec-11 04:22 326 1 gusting 2 5.6
2019-Dec-11 04:17 326 0 gusting 2 5.6
2019-Dec-11 04:12 326 1 gusting 2 5.6
2019-Dec-11 04:07 326 1 gusting 2 6.1
2019-Dec-11 04:02 270 1 gusting 2 6.1
2019-Dec-11 03:57 303 6.1
2019-Dec-11 03:52 325 0 gusting 2 6.1
2019-Dec-11 03:47 271 1 gusting 2 6.1
2019-Dec-11 03:42 278 0 gusting 3 6.1
2019-Dec-11 03:37 278 1 gusting 3 6.1
2019-Dec-11 03:32 279 1 gusting 5 6.1
2019-Dec-11 03:27 302 2 gusting 7 6.1
2019-Dec-11 03:22 246 1 gusting 7 6.7
2019-Dec-11 03:17 320 4 gusting 6 6.7
2019-Dec-11 03:12 281 2 gusting 10 6.7
2019-Dec-11 03:07 299 3 gusting 10 6.7
2019-Dec-11 03:02 283 5 gusting 10 6.7
2019-Dec-11 02:57 355 9 gusting 9 7.2
2019-Dec-11 02:52 275 6 gusting 9 7.2
2019-Dec-11 02:47 302 4 gusting 9 7.2
2019-Dec-11 02:42 294 4 gusting 9 7.2
2019-Dec-11 02:37 315 6 gusting 14 7.2
2019-Dec-11 02:32 305 7 gusting 14 7.8
2019-Dec-11 02:27 300 3 gusting 8 7.8
2019-Dec-11 02:22 300 4 gusting 13 7.8
2019-Dec-11 02:17 292 6 gusting 13 7.8
2019-Dec-11 02:12 309 7 gusting 11 7.8
2019-Dec-11 02:07 300 6 gusting 7 7.8
2019-Dec-11 02:02 324 3 gusting 6 8.3
2019-Dec-11 01:57 293 2 gusting 6 8.3
2019-Dec-11 01:52 281 2 gusting 5 8.3
2019-Dec-11 01:47 292 1 gusting 4 8.3
2019-Dec-11 01:42 286 3 gusting 5 8.3
2019-Dec-11 01:37 312 2 gusting 5 8.3
2019-Dec-11 01:32 296 1 gusting 4 8.3
2019-Dec-11 01:27 300 1 gusting 5 8.3
2019-Dec-11 01:22 303 1 gusting 6 8.3
2019-Dec-11 01:17 337 1 gusting 6 8.3
2019-Dec-11 01:12 298 4 gusting 11 8.3
2019-Dec-11 01:07 321 3 gusting 11 8.3
2019-Dec-11 01:02 300 3 gusting 11 8.9
2019-Dec-11 00:57 332 5 gusting 11 8.9
2019-Dec-11 00:52 317 3 gusting 9 8.9
2019-Dec-11 00:47 319 4 gusting 10 8.9
2019-Dec-11 00:42 342 4 gusting 16 9.4
2019-Dec-11 00:37 300 4 gusting 19 9.4
2019-Dec-11 00:32 311 5 gusting 19 9.4
2019-Dec-11 00:27 332 12 gusting 18 10.0
2019-Dec-11 00:22 323 12 gusting 15 10.6
2019-Dec-11 00:17 294 6 gusting 8 10.6
2019-Dec-11 00:12 286 6 gusting 9 10.6
2019-Dec-11 00:07 304 2 gusting 9 10.6
2019-Dec-11 00:02 240 0 gusting 6 10.6
2019-Dec-10 23:57 302 3 gusting 6 10.0
2019-Dec-10 23:52 267 0 gusting 5 10.0
2019-Dec-10 23:47 232 1 gusting 5 10.0
2019-Dec-10 23:42 223 1 gusting 5 10.0
2019-Dec-10 23:37 249 2 gusting 6 10.0
2019-Dec-10 23:32 244 2 gusting 7 10.0
2019-Dec-10 23:27 234 2 gusting 8 10.0
2019-Dec-10 23:22 241 3 gusting 8 10.0
2019-Dec-10 23:17 207 1 gusting 8 10.0
2019-Dec-10 23:12 231 5 gusting 9 10.0
2019-Dec-10 23:07 227 4 gusting 10 10.0
2019-Dec-10 23:02 227 5 gusting 11 10.0